Location: Unspecified
(34.4950°S, 58.5160°W)
Time: 01:09:56
(UTC+00:00)

Cosmos 773 Rocket - Pass Details

Date: 19 April 2026
Orbit: 742 x 771 km, 74.1° (Epoch: 12 May)

Event Time Altitude Azimuth Distance (km) Brightness Sun altitude
Rises 08:30:32 0° 194° (SSW) 3,277 7.2 -23.3°
Reaches altitude 10° 08:32:58 10° 191° (S) 2,342 6.4 -22.8°
Maximum altitude 08:38:16 66° 109° (ESE) 845 4.4 -21.7°
Drops below altitude 10° 08:43:28 10° 26° (NNE) 2,300 6.8 -20.7°
Sets 08:45:50 0° 23° (NNE) 3,214 7.5 -20.2°
